Location: *
(51.2167°N, 10.0667°E)
Time: 15:12:08
(UTC+00:00)

Meteor 1-19 Rocket - Pass Details

Date: 12 December 2019
Orbit: 816 x 919 km, 81.2° (Epoch: 28 January)

Event Time Altitude Azimuth Distance (km) Brightness Sun altitude
Rises 17:21:39 0° 172° (S) 3,370 7.4 -19.1°
Reaches altitude 10° 17:24:08 10° 166° (SSE) 2,429 6.6 -19.4°
Maximum altitude 17:29:21 47° 94° (E) 1,084 4.3 -20.2°
Enters shadow 17:30:50 38° 53° (NE) 1,246 4.6 -20.5°
